Location: Ottawa
(45.4167°N, 75.7000°W)
Time: 22:14:59
(UTC-04:00)

Tiangong 1 - Pass Details

Date: 11 October 2017
Orbit: 292 x 319 km, 42.8° (Epoch: 23 October)

Event Time Altitude Azimuth Distance (km) Brightness Sun altitude
Rises 19:31:17 0° 266° (W) 2,044 6.8 -12.6°
Reaches altitude 10° 19:33:19 10° 260° (W) 1,208 4.9 -13.0°
Maximum altitude 19:35:55 44° 186° (S) 444 1.4 -13.4°
Enters shadow 19:36:56 28° 131° (SE) 625 1.7 -13.6°
